This is the latest recevied weather packets stored in our database for station/object WW6Q. If no packets are shown the sender has not sent any weather packets the latest 10 day(s).
| Time | Temp. | Humidity | Pressure | Rain* | Wind** | Luminosity | Snow |
|---|---|---|---|---|---|---|---|
| 1787943307 | 26.67° C | 44% | 1020.5 hPa | 0 mm | - | 749 W/m² | - |
| 1787943002 | 26.11° C | 47% | 1020.7 hPa | 0 mm | - | 754 W/m² | - |
| 1787942697 | 26.11° C | 50% | 1020.4 hPa | 0 mm | - | 756 W/m² | - |
| 1787942396 | 26.11° C | 52% | 1020.5 hPa | 0 mm | - | 756 W/m² | - |
| 1787942091 | 26.67° C | 48% | 1020.7 hPa | 0 mm | - | 758 W/m² | - |
| 1787941787 | 26.67° C | 50% | 1020.9 hPa | 0 mm | - | 764 W/m² | - |
| 1787941486 | 26.67° C | 52% | 1020.6 hPa | 0 mm | - | 767 W/m² | - |
| 1787941180 | 26.11° C | 53% | 1020.5 hPa | 0 mm | - | 769 W/m² | - |
| 1787940875 | 25.56° C | 47% | 1020.9 hPa | 0 mm | - | 774 W/m² | - |
| 1787940573 | 25.56° C | 53% | 1020.8 hPa | 0 mm | - | 772 W/m² | - |
| 1787940273 | 25.56° C | 50% | 1020.8 hPa | 0 mm | - | 773 W/m² | - |
| 1787939972 | 25.56° C | 50% | 1020.8 hPa | 0 mm | - | 776 W/m² | - |
| 1787939672 | 26.11° C | 53% | 1020.7 hPa | 0 mm | - | 774 W/m² | - |
| 1787939367 | 25.56° C | 47% | 1020.7 hPa | 0 mm | - | 771 W/m² | - |
| 1787939062 | 25° C | 51% | 1020.9 hPa | 0 mm | - | 772 W/m² | - |
| 1787938761 | 25.56° C | 50% | 1020.7 hPa | 0 mm | - | 774 W/m² | - |
| 1787938457 | 25.56° C | 46% | 1020.9 hPa | 0 mm | - | 769 W/m² | - |
| 1787938152 | 25.56° C | 45% | 1021.1 hPa | 0 mm | - | 768 W/m² | - |
| 1787937847 | 25.56° C | 47% | 1021.1 hPa | 0 mm | - | 766 W/m² | - |
| 1787937543 | 25° C | 48% | 1020.9 hPa | 0 mm | - | 764 W/m² | - |
| 1787937239 | 25° C | 50% | 1021.1 hPa | 0 mm | - | 759 W/m² | - |
| 1787936934 | 25.56° C | 52% | 1021.2 hPa | 0 mm | - | 758 W/m² | - |
| 1787936632 | 25° C | 49% | 1021.1 hPa | 0 mm | - | 753 W/m² | - |
| 1787936332 | 25° C | 51% | 1021.2 hPa | 0 mm | - | 750 W/m² | - |
| 1787936028 | 25° C | 52% | 1021.3 hPa | 0 mm | - | 744 W/m² | - |
* Rain latest hour (hover to see other rain measurements)
** Current wind speed in m/s (hover to see current wind gust speed)